When you browse on this site, cookies collect data to enhance your experience and personalize the content and advertising you see.
Visit our Privacy Policy to learn more. By continuing to use the site, you agree to this use of cookies and data.
  • In Hungary
  • List of Countries
  • For 7 days
  • Water Temperature
  • Satellite Maps
  • Weather Map
  • News
  • Weather Widgets
  • user-avatar
    Login

    Hourly Weather Yeghegnadzor

    Today, 16 December, Sunday

    Time Temperature Precipitation Wind Pressure Humidity
    00:00 +1°C° 0 mm 2 mps 655 mmHg 73%
    01:00 +1°C° 0 mm 2 mps 655 mmHg 74%
    02:00 +1°C° 0 mm 2 mps 655 mmHg 74%
    03:00 -1°C° 0 mm 2 mps 655 mmHg 76%
    04:00 -1°C° 0 mm 2 mps 655 mmHg 75%
    05:00 -1°C° 0 mm 2 mps 655 mmHg 75%
    06:00 -1°C° 0 mm 2 mps 655 mmHg 75%
    07:00 +1°C° 0 mm 2 mps 655 mmHg 74%
    08:00 +2°C° 0 mm 2 mps 655 mmHg 72%
    09:00 +3°C° 0 mm 2 mps 655 mmHg 70%
    10:00 +4°C° 0 mm 2 mps 655 mmHg 69%
    11:00 +5°C° 0 mm 2 mps 655 mmHg 67%
    12:00 +6°C° 0 mm 2 mps 655 mmHg 66%
    13:00 +6°C° 0 mm 2 mps 655 mmHg 66%
    14:00 +6°C° 0 mm 2 mps 655 mmHg 67%
    15:00 +6°C° 0 mm 2 mps 655 mmHg 67%
    16:00 +5°C° 0 mm 2 mps 655 mmHg 67%
    17:00 +4°C° 0 mm 2 mps 655 mmHg 68%
    18:00 +3°C° 0 mm 2 mps 655 mmHg 68%
    19:00 +3°C° 0 mm 2 mps 655 mmHg 67%
    20:00 +3°C° 0 mm 2 mps 655 mmHg 65%
    21:00 +3°C° 0 mm 2 mps 655 mmHg 63%
    22:00 +2°C° 0 mm 2 mps 655 mmHg 63%
    23:00 +2°C° 0 mm 2 mps 655 mmHg 62%

    Tomorrow, 17 December, Monday

    Time Temperature Precipitation Wind Pressure Humidity
    00:00 +2°C° 0 mm 2 mps 655 mmHg 62%
    01:00 +2°C° 0 mm 2 mps 655 mmHg 61%
    02:00 +2°C° 0 mm 2 mps 655 mmHg 61%
    03:00 +1°C° 0 mm 2 mps 654 mmHg 60%
    04:00 +2°C° 0 mm 2 mps 654 mmHg 59%
    05:00 +2°C° 0 mm 2 mps 654 mmHg 59%
    06:00 +2°C° 0 mm 2 mps 654 mmHg 58%
    07:00 +3°C° 0 mm 2 mps 654 mmHg 58%
    08:00 +3°C° 0 mm 2 mps 654 mmHg 58%
    09:00 +4°C° 0 mm 2 mps 655 mmHg 58%
    10:00 +5°C° 0 mm 2 mps 654 mmHg 59%
    11:00 +6°C° 0 mm 2 mps 654 mmHg 59%
    12:00 +7°C° 0 mm 2 mps 654 mmHg 60%
    13:00 +6°C° 0.1 mm 2 mps 654 mmHg 63%
    14:00 +6°C° 0.1 mm 2 mps 653 mmHg 66%
    15:00 +5°C° 0.1 mm 2 mps 653 mmHg 70%
    16:00 +6°C° 0.3 mm 1 mps 653 mmHg 74%
    17:00 +5°C° 0.3 mm 1 mps 653 mmHg 77%
    18:00 +4°C° 0.3 mm 1 mps 653 mmHg 81%
    19:00 +4°C° 0.6 mm 1 mps 653 mmHg 83%
    20:00 +4°C° 0.6 mm 1 mps 653 mmHg 84%
    21:00 +4°C° 0.6 mm 1 mps 653 mmHg 86%
    22:00 +4°C° 0.6 mm 1 mps 653 mmHg 87%
    23:00 +4°C° 0.6 mm 1 mps 653 mmHg 88%

    Day after tomorrow, 18 December, Tuesday

    Time Temperature Precipitation Wind Pressure Humidity
    00:00 +4°C° 0.6 mm 1 mps 653 mmHg 89%
    01:00 +4°C° 0.8 mm 1 mps 653 mmHg 90%
    02:00 +4°C° 0.8 mm 1 mps 653 mmHg 90%
    03:00 +3°C° 0.8 mm 0 mps 652 mmHg 91%
    04:00 +3°C° 0.7 mm 0 mps 652 mmHg 91%
    05:00 +2°C° 0.7 mm 0 mps 652 mmHg 92%
    06:00 +2°C° 0.7 mm 0 mps 652 mmHg 92%
    07:00 +3°C° 0.4 mm 0 mps 653 mmHg 91%
    08:00 +4°C° 0.4 mm 1 mps 653 mmHg 90%
    09:00 +4°C° 0.4 mm 1 mps 653 mmHg 90%
    10:00 +4°C° 0.1 mm 1 mps 653 mmHg 88%
    11:00 +5°C° 0.1 mm 1 mps 653 mmHg 87%
    12:00 +4°C° 0.1 mm 2 mps 653 mmHg 86%
    13:00 +4°C° 0.1 mm 2 mps 653 mmHg 85%
    14:00 +5°C° 0.1 mm 1 mps 653 mmHg 84%
    15:00 +6°C° 0.1 mm 1 mps 653 mmHg 83%
    16:00 +4°C° 0 mm 1 mps 653 mmHg 84%
    17:00 +3°C° 0 mm 1 mps 653 mmHg 85%
    18:00 +2°C° 0 mm 1 mps 653 mmHg 86%
    19:00 +2°C° 0 mm 1 mps 654 mmHg 85%
    20:00 +1°C° 0 mm 2 mps 654 mmHg 84%
    21:00 -1°C° 0 mm 2 mps 654 mmHg 82%
    22:00 +1°C° 0 mm 2 mps 654 mmHg 83%
    23:00 +1°C° 0 mm 2 mps 655 mmHg 83%

    19 December, Wednesday

    Time Temperature Precipitation Wind Pressure Humidity
    00:00 +1°C° 0 mm 2 mps 655 mmHg 83%
    01:00 +1°C° 0 mm 2 mps 655 mmHg 84%
    02:00 +1°C° 0 mm 2 mps 655 mmHg 85%
    03:00 +1°C° 0 mm 2 mps 655 mmHg 87%
    04:00 +1°C° 0 mm 2 mps 655 mmHg 86%
    05:00 +1°C° 0 mm 2 mps 655 mmHg 86%
    06:00 +1°C° 0 mm 2 mps 655 mmHg 86%
    07:00 +1°C° 0 mm 2 mps 655 mmHg 84%
    08:00 +2°C° 0 mm 2 mps 655 mmHg 83%
    09:00 +3°C° 0 mm 2 mps 656 mmHg 81%
    10:00 +4°C° 0 mm 2 mps 655 mmHg 80%
    11:00 +4°C° 0 mm 2 mps 655 mmHg 79%
    12:00 +5°C° 0 mm 2 mps 655 mmHg 78%
    13:00 +5°C° 0 mm 2 mps 655 mmHg 78%
    14:00 +5°C° 0 mm 2 mps 654 mmHg 78%
    15:00 +5°C° 0 mm 2 mps 654 mmHg 78%
    16:00 +4°C° 0 mm 2 mps 654 mmHg 78%
    17:00 +3°C° 0 mm 2 mps 654 mmHg 78%
    18:00 +2°C° 0 mm 2 mps 654 mmHg 78%
    19:00 +2°C° 0 mm 2 mps 654 mmHg 76%
    20:00 +3°C° 0 mm 2 mps 654 mmHg 74%
    21:00 +3°C° 0 mm 2 mps 654 mmHg 73%
    22:00 +3°C° 0 mm 2 mps 654 mmHg 73%
    23:00 +2°C° 0 mm 2 mps 654 mmHg 73%

    20 December, Thursday

    Time Temperature Precipitation Wind Pressure Humidity
    00:00 +2°C° 0 mm 2 mps 654 mmHg 73%
    01:00 +3°C° 0 mm 1 mps 654 mmHg 73%
    02:00 +3°C° 0 mm 1 mps 653 mmHg 73%
    03:00 +3°C° 0 mm 1 mps 653 mmHg 73%
    04:00 +3°C° 0 mm 1 mps 653 mmHg 74%
    05:00 +3°C° 0 mm 1 mps 653 mmHg 74%
    06:00 +3°C° 0 mm 1 mps 652 mmHg 75%
    07:00 +3°C° 0 mm 1 mps 653 mmHg 75%
    08:00 +4°C° 0 mm 1 mps 653 mmHg 76%
    09:00 +4°C° 0 mm 1 mps 653 mmHg 76%
    10:00 +5°C° 0.1 mm 1 mps 653 mmHg 77%
    11:00 +6°C° 0.1 mm 1 mps 653 mmHg 77%
    12:00 +6°C° 0.1 mm 1 mps 652 mmHg 78%
    13:00 +6°C° 0.1 mm 1 mps 652 mmHg 79%
    14:00 +6°C° 0.1 mm 1 mps 652 mmHg 80%
    15:00 +6°C° 0.1 mm 1 mps 652 mmHg 81%
    16:00 +5°C° 0.1 mm 1 mps 652 mmHg 83%
    17:00 +4°C° 0.1 mm 1 mps 652 mmHg 86%
    18:00 +2°C° 0.1 mm 0 mps 652 mmHg 88%
    19:00 +2°C° 0.1 mm 0 mps 652 mmHg 88%
    20:00 +2°C° 0.1 mm 0 mps 652 mmHg 87%
    21:00 +2°C° 0.1 mm 0 mps 652 mmHg 87%
    22:00 +1°C° 0.1 mm 0 mps 652 mmHg 87%
    23:00 +1°C° 0.1 mm 0 mps 652 mmHg 87%

    21 December, Friday

    Time Temperature Precipitation Wind Pressure Humidity
    00:00 +1°C° 0.1 mm 0 mps 652 mmHg 87%
    01:00 0°C° 0 mm 0 mps 652 mmHg 87%
    02:00 +1°C° 0 mm 1 mps 652 mmHg 86%
    03:00 +1°C° 0 mm 1 mps 652 mmHg 86%
    04:00 +1°C° 0 mm 1 mps 652 mmHg 85%
    05:00 +1°C° 0 mm 1 mps 652 mmHg 85%
    06:00 +1°C° 0 mm 1 mps 652 mmHg 85%
    07:00 +2°C° 0.1 mm 1 mps 653 mmHg 83%
    08:00 +2°C° 0.1 mm 1 mps 653 mmHg 81%
    09:00 +3°C° 0.1 mm 1 mps 654 mmHg 79%
    10:00 +4°C° 0.2 mm 1 mps 653 mmHg 79%
    11:00 +4°C° 0.2 mm 1 mps 653 mmHg 78%
    12:00 +5°C° 0.2 mm 1 mps 653 mmHg 78%
    13:00 +5°C° 0.2 mm 1 mps 653 mmHg 78%
    14:00 +5°C° 0.2 mm 1 mps 653 mmHg 79%
    15:00 +5°C° 0.2 mm 1 mps 653 mmHg 80%
    16:00 +4°C° 0.2 mm 1 mps 653 mmHg 82%
    17:00 +3°C° 0.2 mm 1 mps 653 mmHg 84%
    18:00 +3°C° 0.2 mm 1 mps 653 mmHg 87%
    19:00 +3°C° 0.3 mm 1 mps 653 mmHg 87%
    20:00 +3°C° 0.3 mm 1 mps 653 mmHg 87%
    21:00 +2°C° 0.3 mm 1 mps 653 mmHg 87%
    22:00 +2°C° 0.2 mm 1 mps 653 mmHg 87%
    23:00 +2°C° 0.2 mm 1 mps 653 mmHg 87%
    Show more